Location: Unspecified
(0.0000°N, 0.0000°E)
Time: 23:07:13
(UTC+02:00)

Tiangong 2 - Visible Passes

Search period start: 22 October 2017 00:00
Search period end: 31 October 2017 23:00
Orbit: 388 x 391 km, 42.8° (Epoch: 22 October)

Date Brightness Start Highest point End Pass type
(mag) Time Alt. Az. Time Alt. Az. Time Alt. Az.
22 Oct 3.7 21:31:10 10° WSW 21:32:43 21° W 21:32:43 21° W visible
23 Oct 1.0 20:32:58 10° SW 20:36:09 85° NW 20:38:14 19° NE visible
24 Oct 4.1 21:14:30 10° NW 21:15:01 10° NW 21:15:31 10° NW visible
25 Oct 3.5 07:06:51 10° N 07:09:18 20° NE 07:11:45 10° E visible
25 Oct 3.2 20:14:26 10° WSW 20:17:07 25° NW 20:19:47 10° NNE visible
27 Oct 1.4 06:48:05 18° NW 06:50:14 65° NE 06:53:25 10° SE visible
28 Oct 3.8 05:53:31 19° ENE 05:53:31 19° ENE 05:54:58 10° E visible
29 Oct 2.0 05:31:15 34° SW 05:31:15 34° SW 05:34:05 10° SSE visible
